EW2821 Weather Reports


Display with metric or nautical units.
time (UTC)temp
F
wind
direction
speed
MPH
gust
MPH
rain 1hr
in
rain 24hr
in
rain mn
in
humidity
%
barometer
mb
20260510234539 60 321 3.0 9.0 0.00 0.00 0.00 49 1018.2
20260510233039 61 324 6.0 11.0 0.00 0.00 0.00 45 1018.1
20260510231544 62 328 5.0 11.0 0.00 0.00 0.00 44 1017.9
20260510230036 64 282 4.0 10.0 0.00 0.00 0.00 44 1017.8
20260510224537 64 322 2.0 12.0 0.00 0.00 0.00 42 1018.0
20260510223035 64 280 7.0 13.0 0.00 0.00 0.00 43 1017.9
20260510221540 64 360 4.0 9.0 0.00 0.00 0.00 44 1018.1
20260510220034 64 314 10.0 15.0 0.00 0.00 0.00 43 1017.9
20260510214536 64 17 3.0 13.0 0.00 0.00 0.00 45 1017.8
20260510213032 64 345 6.0 15.0 0.00 0.00 0.00 48 1017.8
20260510211531 64 284 5.0 12.0 0.00 0.00 0.00 44 1017.7
20260510210030 63 302 5.0 13.0 0.00 0.00 0.00 46 1017.4
20260510204531 65 27 9.0 16.0 0.00 0.00 0.00 44 1017.3
20260510203028 64 312 0.0 9.0 0.00 0.00 0.00 45 1017.1
20260510201527 64 333 6.0 10.0 0.00 0.00 0.00 47 1017.2
20260510200030 64 16 7.0 12.0 0.00 0.00 0.00 45 1017.3
20260510194539 64 45 3.0 13.0 0.00 0.00 0.00 49 1017.4
20260510193024 64 292 7.0 16.0 0.00 0.00 0.00 44 1017.5
20260510191529 63 289 9.0 15.0 0.00 0.00 0.00 48 1017.5
20260510190025 64 307 7.0 13.0 0.00 0.00 0.00 53 1017.7
20260510184522 64 307 10.0 15.0 0.00 0.00 0.00 46 1017.6
20260510183020 63 326 5.0 15.0 0.00 0.00 0.00 50 1017.8
20260510181521 63 284 8.0 12.0 0.00 0.00 0.00 53 1017.5
20260510180019 62 283 6.0 12.0 0.00 0.00 0.00 52 1017.5
20260510174518 62 244 6.0 13.0 0.00 0.00 0.00 52 1017.6
20260510173021 62 293 3.0 9.0 0.00 0.00 0.00 48 1017.7
20260510171517 62 318 8.0 17.0 0.00 0.00 0.00 50 1017.7
20260510170015 61 302 6.0 12.0 0.00 0.00 0.00 54 1017.5
20260510164515 61 331 4.0 12.0 0.00 0.00 0.00 51 1017.1
20260510163009 61 5 5.0 11.0 0.00 0.00 0.00 54 1017.1
20260510161511 61 56 5.0 10.0 0.00 0.00 0.00 51 1017.3
20260510160008 61 328 5.0 10.0 0.00 0.00 0.00 54 1017.4
20260510154503 60 329 5.0 10.0 0.00 0.00 0.00 63 1017.2
20260510153102 60 97 2.0 13.0 0.00 0.00 0.00 59 1017.1
20260510151557 60 52 3.0 9.0 0.00 0.00 0.00 59 1017.0
20260510144549 59 25 4.0 9.0 0.00 0.00 0.00 64 1016.8
20260510143052 59 336 6.0 12.0 0.00 0.00 0.00 62 1016.5
20260510141542 59 60 2.0 10.0 0.00 0.00 0.00 61 1016.3
20260510140036 58 39 4.0 11.0 0.00 0.00 0.00 63 1016.3
20260510134535 58 336 6.0 12.0 0.00 0.00 0.00 63 1016.1
20260510133034 58 343 3.0 12.0 0.00 0.00 0.00 65 1015.8
20260510131529 57 24 3.0 11.0 0.00 0.00 0.00 66 1015.4
20260510130020 56 20 5.0 8.0 0.00 0.00 0.00 64 1015.3
20260510124518 55 14 6.0 10.0 0.00 0.00 0.00 67 1015.1
20260510123012 54 360 3.0 9.0 0.00 0.00 0.00 71 1014.8
20260510121510 53 26 2.0 8.0 0.00 0.00 0.00 71 1014.7
20260510120010 53 5 3.0 8.0 0.00 0.00 0.00 71 1014.3
20260510114506 53 5 3.0 8.0 0.00 0.00 0.00 71 1014.2
20260510113003 53 10 3.0 6.0 0.00 0.00 0.00 72 1014.0
20260510111601 53 14 1.0 4.0 0.00 0.00 0.00 72 1014.0
20260510110059 52 20 1.0 8.0 0.00 0.00 0.00 73 1013.6
20260510104600 52 355 2.0 5.0 0.00 0.00 0.00 74 1013.4
20260510103053 51 326 1.0 4.0 0.00 0.00 0.00 76 1013.3
20260510101548 52 15 2.0 3.0 0.00 0.00 0.00 76 1013.0
20260510100047 53 10 1.0 4.0 0.00 0.00 0.00 72 1012.8
20260510094545 53 350 3.0 5.0 0.00 0.00 0.00 72 1012.9
20260510093055 54 5 1.0 5.0 0.00 0.00 0.00 74 1012.7
20260510091540 54 360 0.0 4.0 0.00 0.00 0.00 72 1012.4
20260510090040 54 353 1.0 6.0 0.00 0.00 0.00 70 1012.3
20260510084538 54 360 4.0 11.0 0.00 0.01 0.00 70 1012.2
20260510083039 54 33 1.0 10.0 0.00 0.01 0.00 73 1012.0
20260510081541 54 36 2.0 5.0 0.00 0.01 0.00 76 1011.7
20260510080034 54 342 2.0 4.0 0.00 0.01 0.00 76 1011.7
20260510074528 55 22 4.0 8.0 0.00 0.07 0.00 74 1011.3
20260510073024 55 336 3.0 12.0 0.00 0.07 0.00 72 1011.4
20260510071520 57 347 6.0 13.0 0.00 0.07 0.00 68 1011.5
20260510070022 58 353 4.0 10.0 0.00 0.07 0.00 69 1011.0
20260510064513 58 353 3.0 10.0 0.00 0.14 0.00 76 1010.8
20260510063010 59 24 5.0 11.0 0.00 0.14 0.00 79 1010.9
20260510061512 59 295 2.0 9.0 0.00 0.14 0.00 84 1010.7
20260510060006 59 293 1.0 4.0 0.00 0.15 0.00 84 1010.5
20260510054509 60 270 2.0 6.0 0.00 0.15 0.00 82 1010.6
20260510053120 60 266 2.0 6.0 0.00 0.15 0.00 81 1010.5
20260510051606 61 268 2.0 8.0 0.00 0.15 0.00 80 1010.2
20260510050111 62 255 3.0 7.0 0.00 0.15 0.00 79 1010.5
20260510044606 62 258 3.0 6.0 0.00 0.25 0.00 80 1010.5
20260510043059 62 241 1.0 9.0 0.00 0.25 0.00 81 1010.1
20260510041556 62 351 2.0 6.0 0.00 0.25 0.00 79 1010.2
20260510040048 63 282 2.0 4.0 0.00 0.25 0.00 78 1010.1
20260510034548 64 316 7.0 11.0 0.00 0.36 0.25 76 1010.2
20260510033058 64 267 2.0 12.0 0.00 0.36 0.25 75 1009.8
20260510031543 63 224 4.0 10.0 0.00 0.36 0.25 75 1009.3
20260510030051 63 221 3.0 9.0 0.00 0.36 0.25 74 1009.3
20260510024543 62 234 3.0 10.0 0.00 0.42 0.25 75 1009.3
20260510023042 62 252 2.0 9.0 0.00 0.42 0.25 76 1009.4
20260510021542 62 216 2.0 7.0 0.00 0.42 0.25 75 1009.2
20260510020041 62 218 2.0 6.0 0.00 0.42 0.25 75 1009.0
20260510014542 61 215 3.0 6.0 0.00 0.43 0.25 75 1008.8
20260510013040 62 231 2.0 4.0 0.00 0.43 0.25 73 1008.6
20260510011540 64 237 0.0 3.0 0.00 0.43 0.25 70 1008.4
20260510010039 65 239 0.0 4.0 0.00 0.43 0.25 66 1008.1
20260510004541 67 259 2.0 11.0 0.00 0.47 0.25 64 1008.0
20260510003045 67 253 3.0 13.0 0.00 0.47 0.25 62 1008.0
20260510001537 68 252 8.0 12.0 0.00 0.47 0.25 60 1007.7
20260510000042 69 253 6.0 12.0 0.00 0.47 0.25 60 1007.5
20260509234551 69 278 6.0 11.0 0.00 0.51 0.25 59 1007.5